Flag for Peru Weather past 2 weeks in Trujillo, La Libertad, Peru

Now
68 °F

Mostly cloudy.


Feels Like: 68 °F
Forecast: 71 / 82 °F
Wind: 3 mph from Southeast

Location: Trujillo Airport

Current Time: Mar 30, 2015 at 4:45:07 AM

Latest Report: Mar 30, 2015 at 4:00 AM


Visibility: 6 mi

Pressure: 29.89 "Hg

Humidity: 88%

Dew point: 64 °F

Location of TrujilloLocation

Historic Weather in Trujillo — Graph

°F

Trujillo temperature yesterday

Maximum temperature yesterday: 77 °F (at 3:00 PM)
Minimum temperature yesterday: 66 °F (at 7:00 AM)
Average temperature yesterday: 71 °F

Past Weeks' High & Low Weather Summary

 TemperatureHumidityPressure
High84 °F (Mar 21, 1:00 PM)94% (Mar 23, 6:00 AM)30.01 "Hg (Mar 23, 6:00 AM)
Low66 °F (Mar 29, 7:00 AM)61% (Mar 18, 10:00 AM)29.77 "Hg (Mar 15, 4:00 AM)
Average75 °F79%29.89 "Hg
* Reported Mar 15 3:00 AM — Mar 30 3:00 AM, Trujillo, Weather by CustomWeather, © 2015

Note: Actual official high and low records may vary slightly from our data, if they occured in-between our weather recording intervals... More about our weather records

Advertising

Trujillo weather history for previous 24 hours

 ConditionsComfort  
Time TempWeatherWind HumidityBarometerVisibility
3:00 AM
Mon, Mar 30
68 °FOvercast.3 mph88%29.92 "Hg5 mi
2:00 AM70 °FLow clouds.5 mph83%29.92 "Hg6 mi
1:00 AM70 °FOvercast.5 mph83%29.95 "Hg6 mi
12:00 AM72 °FOvercast.6 mph78%29.98 "HgN/A
11:00 PM
Sun, Mar 29
70 °FPassing clouds.6 mph83%29.98 "HgN/A
10:00 PM72 °FPassing clouds.9 mph78%30.01 "HgN/A
9:00 PM72 °FMostly cloudy.9 mph78%29.98 "Hg6 mi
8:00 PM72 °FPartly cloudy.8 mph83%29.95 "HgN/A
7:00 PM72 °FMostly cloudy.7 mph83%29.92 "HgN/A
6:00 PM73 °FOvercast.8 mph78%29.92 "HgN/A
5:00 PM73 °FBroken clouds.9 mph78%29.89 "HgN/A
4:00 PM75 °FPartly sunny.7 mph74%29.89 "HgN/A
3:00 PM77 °FPartly sunny.8 mph69%29.89 "HgN/A
2:00 PM73 °FBroken clouds.6 mph78%29.92 "HgN/A
1:00 PM75 °FPartly sunny.6 mph74%29.95 "Hg6 mi
12:00 PM72 °FPartly sunny.6 mph78%29.98 "Hg6 mi
11:00 AM72 °FPartly sunny.6 mph83%29.98 "Hg6 mi
10:00 AM70 °FPartly sunny.6 mph83%30.01 "HgN/A
9:00 AM68 °FPartly sunny.7 mph88%29.98 "HgN/A
8:00 AM68 °FBroken clouds.3 mph94%29.95 "HgN/A
7:00 AM66 °FMostly cloudy.5 mph94%29.92 "HgN/A
6:00 AM68 °FMostly cloudy.7 mph88%29.92 "Hg5 mi
5:00 AM68 °FMostly cloudy.2 mph88%29.89 "Hg4 mi
4:00 AM68 °FOvercast.3 mph94%29.92 "Hg5 mi
Weather by CustomWeather, © 2015

See weather overviewHow to use our weather pages